Time,TemperatureF,DewpointF,PressureIn,WindDirection,WindDirectionDegrees,WindSpeedMPH,WindSpeedGustMPH,Humidity,HourlyPrecipIn,Conditions,Clouds,dailyrainin,SoftwareType,DateUTC
2013-01-21 00:00:00,25.0,-99.9,-100.00,West,269,6.0,9.0,-999,0.00,,,-99.99,,2013-01-21 07:00:00,
2013-01-21 00:33:00,25.0,-99.9,-100.00,West,269,6.0,9.0,-999,0.00,,,-99.99,,2013-01-21 07:33:00,
2013-01-21 00:43:00,25.0,-99.9,-100.00,West,269,6.0,9.0,-999,0.00,,,-99.99,,2013-01-21 07:43:00,
2013-01-21 00:53:00,25.0,-99.9,-100.00,West,269,6.0,9.0,-999,0.00,,,-99.99,,2013-01-21 07:53:00,
2013-01-21 01:00:00,26.0,-99.9,-100.00,West,275,7.0,10.0,-999,0.00,,,-99.99,,2013-01-21 08:00:00,
2013-01-21 01:33:00,26.0,-99.9,-100.00,West,275,7.0,10.0,-999,0.00,,,-99.99,,2013-01-21 08:33:00,
2013-01-21 01:43:00,26.0,-99.9,-100.00,West,275,7.0,10.0,-999,0.00,,,-99.99,,2013-01-21 08:43:00,
2013-01-21 01:53:00,26.0,-99.9,-100.00,West,275,7.0,10.0,-999,0.00,,,-99.99,,2013-01-21 08:53:00,
2013-01-21 02:00:00,25.0,-99.9,-100.00,WNW,289,8.0,11.0,-999,0.00,,,-99.99,,2013-01-21 09:00:00,
2013-01-21 02:33:00,25.0,-99.9,-100.00,WNW,289,8.0,11.0,-999,0.00,,,-99.99,,2013-01-21 09:33:00,
2013-01-21 02:43:00,25.0,-99.9,-100.00,WNW,289,8.0,11.0,-999,0.00,,,-99.99,,2013-01-21 09:43:00,
2013-01-21 02:53:00,25.0,-99.9,-100.00,WNW,289,8.0,11.0,-999,0.00,,,-99.99,,2013-01-21 09:53:00,
2013-01-21 03:00:00,24.0,-99.9,-100.00,WNW,290,8.0,10.0,-999,0.00,,,-99.99,,2013-01-21 10:00:00,
2013-01-21 03:33:00,24.0,-99.9,-100.00,WNW,290,8.0,10.0,-999,0.00,,,-99.99,,2013-01-21 10:33:00,
2013-01-21 03:43:00,24.0,-99.9,-100.00,WNW,290,8.0,10.0,-999,0.00,,,-99.99,,2013-01-21 10:43:00,
2013-01-21 03:53:00,24.0,-99.9,-100.00,WNW,290,8.0,10.0,-999,0.00,,,-99.99,,2013-01-21 10:53:00,
2013-01-21 04:00:00,24.0,-99.9,-100.00,West,279,8.0,10.0,-999,0.00,,,-99.99,,2013-01-21 11:00:00,
2013-01-21 04:33:00,24.0,-99.9,-100.00,West,279,8.0,10.0,-999,0.00,,,-99.99,,2013-01-21 11:33:00,
2013-01-21 04:43:00,24.0,-99.9,-100.00,West,279,8.0,10.0,-999,0.00,,,-99.99,,2013-01-21 11:43:00,
2013-01-21 04:53:00,24.0,-99.9,-100.00,West,279,8.0,10.0,-999,0.00,,,-99.99,,2013-01-21 11:53:00,
2013-01-21 05:00:00,24.0,-99.9,-100.00,West,274,6.0,8.0,-999,0.00,,,-99.99,,2013-01-21 12:00:00,
2013-01-21 05:33:00,24.0,-99.9,-100.00,West,274,6.0,8.0,-999,0.00,,,-99.99,,2013-01-21 12:33:00,
2013-01-21 05:43:00,24.0,-99.9,-100.00,West,274,6.0,8.0,-999,0.00,,,-99.99,,2013-01-21 12:43:00,
2013-01-21 05:53:00,24.0,-99.9,-100.00,West,274,6.0,8.0,-999,0.00,,,-99.99,,2013-01-21 12:53:00,
2013-01-21 06:00:00,24.0,-99.9,-100.00,West,265,7.0,10.0,-999,0.00,,,-99.99,,2013-01-21 13:00:00,
2013-01-21 06:33:00,24.0,-99.9,-100.00,West,265,7.0,10.0,-999,0.00,,,-99.99,,2013-01-21 13:33:00,
2013-01-21 06:43:00,24.0,-99.9,-100.00,West,265,7.0,10.0,-999,0.00,,,-99.99,,2013-01-21 13:43:00,
2013-01-21 06:54:00,24.0,-99.9,-100.00,West,265,7.0,10.0,-999,0.00,,,-99.99,,2013-01-21 13:54:00,
2013-01-21 07:00:00,25.0,-99.9,-100.00,West,262,7.0,9.0,-999,0.00,,,-99.99,,2013-01-21 14:00:00,
2013-01-21 07:33:00,25.0,-99.9,-100.00,West,262,7.0,9.0,-999,0.00,,,-99.99,,2013-01-21 14:33:00,
2013-01-21 07:43:00,25.0,-99.9,-100.00,West,262,7.0,9.0,-999,0.00,,,-99.99,,2013-01-21 14:43:00,
2013-01-21 07:54:00,25.0,-99.9,-100.00,West,262,7.0,9.0,-999,0.00,,,-99.99,,2013-01-21 14:54:00,
2013-01-21 08:00:00,25.0,-99.9,-100.00,West,261,7.0,10.0,-999,0.00,,,-99.99,,2013-01-21 15:00:00,
2013-01-21 08:33:00,25.0,-99.9,-100.00,West,261,7.0,10.0,-999,0.00,,,-99.99,,2013-01-21 15:33:00,
2013-01-21 08:43:00,25.0,-99.9,-100.00,West,261,7.0,10.0,-999,0.00,,,-99.99,,2013-01-21 15:43:00,
2013-01-21 08:54:00,25.0,-99.9,-100.00,West,261,7.0,10.0,-999,0.00,,,-99.99,,2013-01-21 15:54:00,
2013-01-21 09:00:00,26.0,-99.9,-100.00,West,264,6.0,11.0,-999,0.00,,,-99.99,,2013-01-21 16:00:00,
2013-01-21 09:34:00,26.0,-99.9,-100.00,West,264,6.0,11.0,-999,0.00,,,-99.99,,2013-01-21 16:34:00,
2013-01-21 09:44:00,26.0,-99.9,-100.00,West,264,6.0,11.0,-999,0.00,,,-99.99,,2013-01-21 16:44:00,
2013-01-21 09:53:00,26.0,-99.9,-100.00,West,264,6.0,11.0,-999,0.00,,,-99.99,,2013-01-21 16:53:00,
2013-01-21 10:00:00,28.0,-99.9,-100.00,West,261,5.0,10.0,-999,0.00,,,-99.99,,2013-01-21 17:00:00,
2013-01-21 10:34:00,28.0,-99.9,-100.00,West,261,5.0,10.0,-999,0.00,,,-99.99,,2013-01-21 17:34:00,
2013-01-21 10:43:00,28.0,-99.9,-100.00,West,261,5.0,10.0,-999,0.00,,,-99.99,,2013-01-21 17:43:00,
2013-01-21 10:53:00,28.0,-99.9,-100.00,West,261,5.0,10.0,-999,0.00,,,-99.99,,2013-01-21 17:53:00,
2013-01-21 11:00:00,33.0,-99.9,-100.00,West,267,2.0,3.0,-999,0.00,,,-99.99,,2013-01-21 18:00:00,
2013-01-21 11:33:00,33.0,-99.9,-100.00,West,267,2.0,3.0,-999,0.00,,,-99.99,,2013-01-21 18:33:00,
2013-01-21 11:43:00,33.0,-99.9,-100.00,West,267,2.0,3.0,-999,0.00,,,-99.99,,2013-01-21 18:43:00,
2013-01-21 11:53:00,33.0,-99.9,-100.00,West,267,2.0,3.0,-999,0.00,,,-99.99,,2013-01-21 18:53:00,
2013-01-21 12:00:00,33.0,-99.9,-100.00,WSW,237,4.0,7.0,-999,-99.99,,,-99.99,,2013-01-21 19:00:00,
2013-01-21 12:33:00,33.0,-99.9,-100.00,WSW,237,4.0,7.0,-999,-99.99,,,-99.99,,2013-01-21 19:33:00,
2013-01-21 12:43:00,33.0,-99.9,-100.00,WSW,237,4.0,7.0,-999,-99.99,,,-99.99,,2013-01-21 19:43:00,
2013-01-21 12:53:00,33.0,-99.9,-100.00,WSW,237,4.0,7.0,-999,-99.99,,,-99.99,,2013-01-21 19:53:00,
2013-01-21 13:00:00,36.0,-99.9,-100.00,SW,228,2.0,8.0,-999,-99.99,,,-99.99,,2013-01-21 20:00:00,
2013-01-21 13:33:00,36.0,-99.9,-100.00,SW,228,2.0,8.0,-999,-99.99,,,-99.99,,2013-01-21 20:33:00,
2013-01-21 13:43:00,36.0,-99.9,-100.00,SW,228,2.0,8.0,-999,-99.99,,,-99.99,,2013-01-21 20:43:00,
2013-01-21 13:53:00,36.0,-99.9,-100.00,SW,228,2.0,8.0,-999,-99.99,,,-99.99,,2013-01-21 20:53:00,
2013-01-21 14:00:00,35.0,-99.9,-100.00,WSW,240,2.0,5.0,-999,-99.99,,,-99.99,,2013-01-21 21:00:00,
2013-01-21 14:33:00,35.0,-99.9,-100.00,WSW,240,2.0,5.0,-999,-99.99,,,-99.99,,2013-01-21 21:33:00,
2013-01-21 14:44:00,35.0,-99.9,-100.00,WSW,240,2.0,5.0,-999,-99.99,,,-99.99,,2013-01-21 21:44:00,
2013-01-21 14:54:00,35.0,-99.9,-100.00,WSW,240,2.0,5.0,-999,-99.99,,,-99.99,,2013-01-21 21:54:00,
2013-01-21 15:00:00,36.0,-99.9,-100.00,SW,235,2.0,5.0,-999,-99.99,,,-99.99,,2013-01-21 22:00:00,
2013-01-21 15:33:00,36.0,-99.9,-100.00,SW,235,2.0,5.0,-999,-99.99,,,-99.99,,2013-01-21 22:33:00,
2013-01-21 15:43:00,36.0,-99.9,-100.00,SW,235,2.0,5.0,-999,-99.99,,,-99.99,,2013-01-21 22:43:00,
2013-01-21 15:53:00,36.0,-99.9,-100.00,SW,235,2.0,5.0,-999,-99.99,,,-99.99,,2013-01-21 22:53:00,
2013-01-21 16:00:00,34.0,-99.9,-100.00,WSW,250,4.0,7.0,-999,-99.99,,,-99.99,,2013-01-21 23:00:00,
2013-01-21 16:33:00,34.0,-99.9,-100.00,WSW,250,4.0,7.0,-999,-99.99,,,-99.99,,2013-01-21 23:33:00,
2013-01-21 16:43:00,34.0,-99.9,-100.00,WSW,250,4.0,7.0,-999,-99.99,,,-99.99,,2013-01-21 23:43:00,
2013-01-21 16:53:00,34.0,-99.9,-100.00,WSW,250,4.0,7.0,-999,-99.99,,,-99.99,,2013-01-21 23:53:00,
2013-01-21 17:00:00,32.0,-99.9,-100.00,West,268,5.0,8.0,-999,-99.99,,,-99.99,,2013-01-22 00:00:00,
2013-01-21 17:33:00,32.0,-99.9,-100.00,West,268,5.0,8.0,-999,-99.99,,,-99.99,,2013-01-22 00:33:00,
2013-01-21 17:43:00,32.0,-99.9,-100.00,West,268,5.0,8.0,-999,-99.99,,,-99.99,,2013-01-22 00:43:00,
2013-01-21 17:53:00,32.0,-99.9,-100.00,West,268,5.0,8.0,-999,-99.99,,,-99.99,,2013-01-22 00:53:00,
2013-01-21 18:00:00,31.0,-99.9,-100.00,West,262,6.0,9.0,-999,-99.99,,,-99.99,,2013-01-22 01:00:00,
2013-01-21 18:33:00,31.0,-99.9,-100.00,West,262,6.0,9.0,-999,-99.99,,,-99.99,,2013-01-22 01:33:00,
2013-01-21 18:43:00,31.0,-99.9,-100.00,West,262,6.0,9.0,-999,-99.99,,,-99.99,,2013-01-22 01:43:00,
2013-01-21 18:53:00,31.0,-99.9,-100.00,West,262,6.0,9.0,-999,-99.99,,,-99.99,,2013-01-22 01:53:00,
2013-01-21 19:00:00,32.0,-99.9,-100.00,WSW,252,6.0,10.0,-999,-99.99,,,-99.99,,2013-01-22 02:00:00,
2013-01-21 19:33:00,32.0,-99.9,-100.00,WSW,252,6.0,10.0,-999,-99.99,,,-99.99,,2013-01-22 02:33:00,
2013-01-21 19:43:00,32.0,-99.9,-100.00,WSW,252,6.0,10.0,-999,-99.99,,,-99.99,,2013-01-22 02:43:00,
2013-01-21 19:53:00,32.0,-99.9,-100.00,WSW,252,6.0,10.0,-999,-99.99,,,-99.99,,2013-01-22 02:53:00,
2013-01-21 20:00:00,32.0,-99.9,-100.00,WSW,253,6.0,12.0,-999,-99.99,,,-99.99,,2013-01-22 03:00:00,
2013-01-21 20:33:00,32.0,-99.9,-100.00,WSW,253,6.0,12.0,-999,-99.99,,,-99.99,,2013-01-22 03:33:00,
2013-01-21 20:43:00,32.0,-99.9,-100.00,WSW,253,6.0,12.0,-999,-99.99,,,-99.99,,2013-01-22 03:43:00,
2013-01-21 20:53:00,32.0,-99.9,-100.00,WSW,253,6.0,12.0,-999,-99.99,,,-99.99,,2013-01-22 03:53:00,
2013-01-21 21:00:00,32.0,-99.9,-100.00,WSW,243,7.0,14.0,-999,-99.99,,,-99.99,,2013-01-22 04:00:00,
2013-01-21 21:33:00,32.0,-99.9,-100.00,WSW,243,7.0,14.0,-999,-99.99,,,-99.99,,2013-01-22 04:33:00,
2013-01-21 21:43:00,32.0,-99.9,-100.00,WSW,243,7.0,14.0,-999,-99.99,,,-99.99,,2013-01-22 04:43:00,
2013-01-21 21:53:00,32.0,-99.9,-100.00,WSW,243,7.0,14.0,-999,-99.99,,,-99.99,,2013-01-22 04:53:00,
2013-01-21 22:00:00,32.0,-99.9,-100.00,WSW,250,7.0,14.0,-999,-99.99,,,-99.99,,2013-01-22 05:00:00,
2013-01-21 22:33:00,32.0,-99.9,-100.00,WSW,250,7.0,14.0,-999,-99.99,,,-99.99,,2013-01-22 05:33:00,
2013-01-21 22:43:00,32.0,-99.9,-100.00,WSW,250,7.0,14.0,-999,-99.99,,,-99.99,,2013-01-22 05:43:00,
2013-01-21 22:53:00,32.0,-99.9,-100.00,WSW,250,7.0,14.0,-999,-99.99,,,-99.99,,2013-01-22 05:53:00,
2013-01-21 23:00:00,32.0,-99.9,-100.00,West,259,9.0,17.0,-999,-99.99,,,-99.99,,2013-01-22 06:00:00,
2013-01-21 23:33:00,32.0,-99.9,-100.00,West,259,9.0,17.0,-999,-99.99,,,-99.99,,2013-01-22 06:33:00,
2013-01-21 23:43:00,32.0,-99.9,-100.00,West,259,9.0,17.0,-999,-99.99,,,-99.99,,2013-01-22 06:43:00,
2013-01-21 23:53:00,32.0,-99.9,-100.00,West,259,9.0,17.0,-999,-99.99,,,-99.99,,2013-01-22 06:53:00,